[[{"header":{"parameterUnit":"m.s-1","parameterCategory":1,"la1":30.2991,"la2":30.254,"lo1":-89.0895,"lo2":-89.0444,"dy":0.0017,"dx":0.0017,"nx":28,"ny":28,"refTime":"2024-02-06T09:00:00:Z","depth":0,"parameterNumber":2,"parameterNumberName":"U-component_of_WINDS"},"data":[0,0,0,0,0,0,0,0,0,0,0,0,0,0,0,0,0,0,0,0,0,0,0,0,0,0,0,0,0,0,0,0,0,0,0,0,0,0,0,0,0,0,0,0,0,0,0,0,0,0,0,0,0,0,0,0,0,0,1.9169,1.9169,0,1.917,1.917,1.917,1.9113,1.9111,1.911,1.9108,1.9109,1.911,1.9112,0,0,0,0,0,0,0,0,0,0,0,0,0,1.9121,1.9122,1.9169,1.9169,1.9169,1.917,1.917,1.917,1.9113,1.9111,1.9109,1.9108,1.9109,1.911,1.9112,0,0,0,0,0,0,0,0,0,0,0,0,0,1.9133,1.9122,1.9169,1.9141,1.9139,1.917,1.917,1.917,1.9113,1.9111,1.9109,1.9107,1.9108,1.911,1.9112,1.917,0,0,1.9119,1.912,0,0,0,0,0,0,0,0,1.9133,1.9135,1.9145,1.9143,1.914,1.9139,1.9153,1.917,1.9114,1.9123,1.9108,1.9106,1.9121,1.9122,1.9127,1.917,1.917,1.9119,1.912,1.9121,1.9122,0,0,0,0,0,0,0,1.9132,1.9135,1.9169,1.9145,1.9142,1.9129,1.9128,1.9156,1.9135,1.9122,1.9118,1.9119,1.9119,1.9125,1.9126,1.917,1.9119,1.9121,1.9122,1.9123,1.9263,1.9266,0,0,0,0,0,0,1.9135,1.9135,1.9169,1.9169,1.9131,1.9131,1.9131,1.9142,1.9134,1.9131,1.9121,1.9116,1.9122,1.9124,1.9126,1.9195,1.9121,1.9123,1.9124,1.9261,1.9264,1.9266,0,0,0,0,0,0,1.9134,1.9139,1.9169,1.9151,1.9154,1.9135,1.9147,1.9143,1.9148,1.9133,1.9129,1.913,1.9121,1.9123,1.916,1.9194,1.9124,1.9126,1.9258,1.9262,1.9265,1.9332,0,0,0,0,0,0,1.9133,1.9139,1.916,1.9152,1.9155,1.9203,1.9149,1.9144,1.9152,1.9146,1.9141,1.9138,1.9119,1.9157,1.9162,1.9195,1.9128,1.9255,1.926,1.9264,1.9326,1.9337,1.9346,0,0,0,0,0,1.9131,1.9179,1.9162,1.9166,1.9182,1.9205,1.9207,1.9184,1.9155,1.9177,1.9167,1.9138,1.9189,1.9161,1.9167,1.9201,1.9253,1.9258,1.9264,1.9322,1.9335,1.9346,0,0,0,0,0,0,1.9191,1.9177,1.9158,1.9204,1.9206,1.9196,1.9222,1.9199,1.9209,1.9203,1.9174,1.9174,1.9215,1.9212,1.9181,1.9258,1.9216,1.9223,1.9259,1.9271,1.9281,1.9281,1.9129,0,0,0,0,0,1.921,1.923,1.9216,1.9258,1.9261,1.9242,1.9251,1.9233,1.9234,1.9235,1.9228,1.9231,1.9247,1.9259,1.9273,1.9326,1.9324,1.9352,1.9362,1.937,1.9377,1.9405,1.9418,1.9285,1.9285,1.9284,0,0,1.9248,1.9243,1.9257,1.927,1.927,1.9292,1.9243,1.9268,1.9284,1.9239,1.9274,1.9269,1.927,1.9315,1.9335,1.9313,1.9413,1.9377,1.9384,1.9386,1.9412,1.9425,1.9436,1.9288,1.9288,1.9287,0,0,1.933,1.9328,1.9363,1.9364,1.9364,1.9351,1.936,1.9353,1.9348,1.9383,1.935,1.9369,1.9398,1.94,1.9405,1.949,1.9464,1.9495,1.9547,1.9576,1.9586,1.9596,1.9626,1.9638,1.9501,1.9502,1.9502,0,1.9378,1.9409,1.9384,1.9412,1.9419,1.9379,1.9415,1.9417,1.9423,1.9429,1.9405,1.9441,1.9439,1.9485,1.9506,1.9511,1.952,1.9495,1.9587,1.9596,1.9604,1.9633,1.9645,1.9505,1.9505,1.9505,1.9504,0,1.9468,1.9491,1.9519,1.9526,1.9536,1.9568,1.9548,1.9561,1.9543,1.9533,1.9569,1.9566,1.9579,1.9589,1.9571,1.9633,1.962,1.9592,1.9549,1.9621,1.9648,1.9659,1.9511,1.951,1.9508,1.9507,0,0,1.9587,1.958,1.9591,1.9594,1.9592,1.9609,1.964,1.9653,1.9666,1.9671,1.9696,1.9722,1.9697,1.9703,1.9685,1.971,1.9778,1.9679,1.9679,1.9698,1.9847,1.9869,1.9882,1.9761,1.9763,1.9765,1.9848,0,1.9667,1.9718,1.9697,1.975,1.9771,1.9735,1.9761,1.9764,1.9755,1.9773,1.9763,1.9783,1.9747,1.9751,1.9774,1.9765,1.9808,1.9759,1.9785,1.9786,1.9786,1.9896,1.9918,1.9997,1.9858,1.986,1.9861,0,1.9766,1.9776,1.9832,1.9828,1.9836,1.986,1.9871,1.9888,1.989,1.9882,1.989,1.9867,1.9897,1.9855,1.9896,1.9864,1.9873,1.9871,1.9873,1.9875,1.9828,1.9901,2.0021,2.0033,1.9877,1.9876,1.9875,0,1.9848,1.9876,1.9913,1.9916,1.9912,1.993,1.9929,1.9929,1.9939,1.9949,1.9955,1.9968,1.9976,1.9987,1.9969,1.994,2.0014,1.9969,2.0009,2.0009,2.0026,2.0025,2.0149,2.0032,2.0031,2.0031,2.0031,0,1.994,1.9976,1.995,1.9973,2.0012,1.9988,2.0027,2.0022,2.0023,2.0045,2.0014,2.0035,2.0009,2.0028,2.0014,2.0051,2.0055,2.005,2.0046,2.0053,2.0054,2.0059,2.0053,2.0034,2.0034,2.0033,2.0032,0,2.0038,2.0022,2.006,2.0053,2.0052,2.0082,2.0076,2.0097,2.0087,2.0115,2.0121,2.0105,2.0126,2.0109,2.0129,2.0119,2.0169,2.0157,2.0169,2.0166,2.0206,2.0203,2.0338,2.0355,2.0226,2.0227,2.0228,0,2.0097,2.0124,2.0121,2.0133,2.0134,2.0154,2.0165,2.0142,2.0154,2.0159,2.018,2.0198,2.0212,2.0247,2.0238,2.0253,2.0242,2.0288,2.0244,2.0251,2.0243,2.0242,2.0245,2.0297,2.0299,2.03,2.0301,0,2.0205,2.0196,2.0212,2.0226,2.0239,2.0248,2.0255,2.0267,2.0244,2.0259,2.0281,2.0291,2.0312,2.0331,2.0344,2.0343,2.0319,2.0315,2.0325,2.0333,2.0339,2.0337,2.0194,2.0312,2.0311,2.031,2.031,2.0309,2.0286,2.0309,2.031,2.0329,2.0332,2.034,2.036,2.0353,2.037,2.0385,2.0371,2.0397,2.0399,2.0414,2.0417,2.0437,2.0418,2.0432,2.0436,2.044,2.0446,2.0336,2.0439,2.0439,2.0438,2.0438,2.0438,0,2.0393,2.0392,2.041,2.0421,2.0437,2.0412,2.0419,2.0434,2.0457,2.0461,2.0475,2.05,2.0519,2.0512,2.0528,2.0546,2.0535,2.0551,2.055,2.055,2.0462,2.0452,2.056,2.056,2.056,2.0559,2.0559,2.0559,2.045,2.0488,2.0479,2.0518,2.0517,2.0542,2.0549,2.0556,2.0559,2.0589,2.0604,2.0599,2.0599,2.0616,2.0632,2.0629,2.0637,2.0657,2.0651,2.0568,2.0556,2.0545,2.0535,2.0659,2.0659,2.0738,2.0738,2.0739]},{"header":{"parameterUnit":"m.s-1","parameterCategory":1,"la1":30.2991,"la2":30.254,"lo1":-89.0895,"lo2":-89.0444,"dy":0.0017,"dx":0.0017,"nx":28,"ny":28,"refTime":"2024-02-06T09:00:00:Z","depth":0,"parameterNumber":3,"parameterNumberName":"V-component_of_WINDS"},"data":[0,0,0,0,0,0,0,0,0,0,0,0,0,0,0,0,0,0,0,0,0,0,0,0,0,0,0,0,0,0,0,0,0,0,0,0,0,0,0,0,0,0,0,0,0,0,0,0,0,0,0,0,0,0,0,0,0,0,-4.2177,-4.2179,0,-4.2423,-4.2426,-4.2429,-4.2448,-4.2445,-4.2443,-4.244,-4.2696,-4.2705,-4.2714,0,0,0,0,0,0,0,0,0,0,0,0,0,-4.1728,-4.1736,-4.2176,-4.218,-4.2183,-4.2423,-4.2426,-4.2429,-4.2448,-4.2445,-4.2442,-4.2439,-4.2693,-4.2704,-4.2715,0,0,0,0,0,0,0,0,0,0,0,0,0,-4.1944,-4.1739,-4.2176,-4.2221,-4.2227,-4.2422,-4.2426,-4.243,-4.2449,-4.2445,-4.2441,-4.2437,-4.2689,-4.2703,-4.2717,-4.2884,0,0,-4.2759,-4.2765,0,0,0,0,0,0,0,0,-4.1931,-4.196,-4.2211,-4.2218,-4.2226,-4.2401,-4.2362,-4.2583,-4.245,-4.2365,-4.244,-4.2435,-4.2601,-4.2622,-4.2677,-4.2896,-4.2907,-4.276,-4.2769,-4.2775,-4.2779,0,0,0,0,0,0,0,-4.1916,-4.195,-4.2274,-4.2215,-4.2224,-4.2231,-4.2257,-4.2404,-4.2503,-4.2372,-4.2374,-4.2403,-4.2604,-4.2664,-4.2683,-4.2911,-4.276,-4.2773,-4.2781,-4.2787,-4.3283,-4.3287,0,0,0,0,0,0,-4.1892,-4.1937,-4.2266,-4.2282,-4.2065,-4.2242,-4.2271,-4.2349,-4.2501,-4.2521,-4.2406,-4.2403,-4.2642,-4.2667,-4.2693,-4.2901,-4.2775,-4.2788,-4.2796,-4.3278,-4.3284,-4.3289,0,0,0,0,0,0,-4.1882,-4.1921,-4.2256,-4.211,-4.2153,-4.2254,-4.2341,-4.2356,-4.2415,-4.2527,-4.2545,-4.2448,-4.264,-4.2673,-4.2837,-4.291,-4.2794,-4.2807,-4.3272,-4.328,-4.3286,-4.3318,0,0,0,0,0,0,-4.1869,-4.1918,-4.1981,-4.2111,-4.2161,-4.2395,-4.2345,-4.2363,-4.2439,-4.2437,-4.2571,-4.259,-4.2639,-4.2816,-4.2851,-4.2927,-4.2818,-4.3266,-4.3275,-4.3284,-4.3311,-4.3325,-4.3338,0,0,0,0,0,-4.1853,-4.198,-4.1984,-4.2024,-4.2242,-4.2399,-4.2428,-4.2481,-4.2444,-4.251,-4.2583,-4.2586,-4.2896,-4.2832,-4.2872,-4.2954,-4.3262,-4.3273,-4.3283,-4.3305,-4.3322,-4.3337,0,0,0,0,0,0,-4.1857,-4.1998,-4.2004,-4.2176,-4.2276,-4.2402,-4.2486,-4.2498,-4.261,-4.2604,-4.2666,-4.2696,-4.2859,-4.2922,-4.2849,-4.3126,-4.3075,-4.3094,-4.3078,-4.3096,-4.3109,-4.3091,-4.283,0,0,0,0,0,-4.1878,-4.1992,-4.211,-4.2251,-4.23,-4.2385,-4.2455,-4.2488,-4.2594,-4.2636,-4.272,-4.2824,-4.2945,-4.3024,-4.3141,-4.332,-4.3351,-4.3396,-4.3409,-4.3419,-4.3436,-4.3538,-4.356,-4.3324,-4.3324,-4.3324,0,0,-4.1922,-4.2013,-4.2082,-4.2254,-4.2335,-4.2454,-4.242,-4.2547,-4.2637,-4.2656,-4.2816,-4.2881,-4.3002,-4.3174,-4.3254,-4.3232,-4.3508,-4.3433,-4.3441,-4.3452,-4.3551,-4.3574,-4.3594,-4.3331,-4.333,-4.3329,0,0,-4.2064,-4.2144,-4.2271,-4.2353,-4.2475,-4.2531,-4.2561,-4.2687,-4.2731,-4.2893,-4.291,-4.3018,-4.3225,-4.3311,-4.3381,-4.3558,-4.3566,-4.3595,-4.3666,-4.3764,-4.3783,-4.38,-4.3866,-4.3888,-4.361,-4.361,-4.361,0,-4.2105,-4.2283,-4.2335,-4.2463,-4.2539,-4.2561,-4.2692,-4.2769,-4.2924,-4.2977,-4.295,-4.3212,-4.3294,-4.3488,-4.3531,-4.3587,-4.3626,-4.358,-4.3776,-4.3793,-4.381,-4.3873,-4.3897,-4.3613,-4.3613,-4.3613,-4.3612,0,-4.2328,-4.2452,-4.2541,-4.2689,-4.2776,-4.2904,-4.2978,-4.3059,-4.3084,-4.3143,-4.3309,-4.3409,-4.3548,-4.3596,-4.3622,-4.3795,-4.3778,-4.3762,-4.3714,-4.3834,-4.3895,-4.392,-4.3617,-4.3616,-4.3615,-4.3615,0,0,-4.248,-4.2656,-4.2688,-4.2757,-4.2895,-4.2993,-4.3123,-4.3259,-4.3329,-4.3435,-4.3548,-4.3723,-4.371,-4.379,-4.3826,-4.3912,-4.405,-4.3887,-4.3891,-4.3916,-4.425,-4.4263,-4.429,-4.4055,-4.406,-4.4063,-4.4241,0,-4.264,-4.2871,-4.2923,-4.3123,-4.324,-4.3263,-4.3377,-4.3475,-4.3534,-4.3643,-4.3709,-4.3833,-4.3805,-4.3854,-4.3941,-4.4014,-4.4118,-4.4002,-4.4163,-4.4168,-4.4134,-4.4321,-4.4334,-4.4497,-4.4265,-4.4269,-4.4272,0,-4.2857,-4.2968,-4.318,-4.3304,-4.3355,-4.3456,-4.3586,-4.3689,-4.3802,-4.3839,-4.3929,-4.3956,-4.4095,-4.4038,-4.4232,-4.4152,-4.4221,-4.4268,-4.4275,-4.4294,-4.4228,-4.4347,-4.455,-4.4575,-4.4309,-4.4306,-4.4303,0,-4.295,-4.3152,-4.3306,-4.3364,-4.3512,-4.3583,-4.3648,-4.3756,-4.3835,-4.3949,-4.4001,-4.413,-4.4201,-4.43,-4.4363,-4.4315,-4.4553,-4.45,-4.459,-4.4589,-4.464,-4.4637,-4.4859,-4.4681,-4.468,-4.468,-4.4679,0,-4.3124,-4.3253,-4.335,-4.3445,-4.3591,-4.365,-4.3794,-4.3859,-4.3956,-4.4066,-4.4093,-4.4195,-4.427,-4.4384,-4.4433,-4.4588,-4.4619,-4.4655,-4.4667,-4.4654,-4.4649,-4.4701,-4.4692,-4.4686,-4.4685,-4.4684,-4.4683,0,-4.3253,-4.3322,-4.3492,-4.3618,-4.3653,-4.3756,-4.3865,-4.3959,-4.4018,-4.4157,-4.4193,-4.4287,-4.4423,-4.4494,-4.4663,-4.4696,-4.4871,-4.4875,-4.4833,-4.4839,-4.4925,-4.4917,-4.5191,-4.5231,-4.5023,-4.5025,-4.5027,0,-4.336,-4.3461,-4.3597,-4.3672,-4.3739,-4.3859,-4.394,-4.4002,-4.4085,-4.4222,-4.43,-4.4437,-4.455,-4.4765,-4.485,-4.498,-4.4989,-4.5076,-4.5009,-4.4994,-4.4994,-4.4988,-4.5,-4.5089,-4.5091,-4.5092,-4.5093,0,-4.3545,-4.3575,-4.3689,-4.3817,-4.3913,-4.4016,-4.4119,-4.4179,-4.4258,-4.4351,-4.449,-4.4577,-4.475,-4.4887,-4.5023,-4.5092,-4.5108,-4.5114,-4.5142,-4.5131,-4.5103,-4.5122,-4.4868,-4.5108,-4.5106,-4.5105,-4.5104,-4.5104,-4.3669,-4.376,-4.3871,-4.3999,-4.4082,-4.4178,-4.4273,-4.4345,-4.4461,-4.4606,-4.4636,-4.4783,-4.4895,-4.5081,-4.5154,-4.5271,-4.5254,-4.5294,-4.5305,-4.5314,-4.5319,-4.5082,-4.5296,-4.5296,-4.5295,-4.5295,-4.5295,0,-4.3857,-4.393,-4.4046,-4.4189,-4.429,-4.4294,-4.4408,-4.4493,-4.4622,-4.4724,-4.4835,-4.4995,-4.5128,-4.5223,-4.5359,-4.5435,-4.5446,-4.5469,-4.5465,-4.5482,-4.5326,-4.5289,-4.5458,-4.5458,-4.5458,-4.5458,-4.5458,-4.5458,-4.3967,-4.4122,-4.4165,-4.4363,-4.4436,-4.4579,-4.4645,-4.4734,-4.4817,-4.4994,-4.5104,-4.5165,-4.5266,-4.541,-4.5533,-4.5557,-4.5607,-4.5631,-4.5656,-4.5509,-4.5492,-4.5476,-4.5442,-4.564,-4.564,-4.5803,-4.5804,-4.5805]}]]